Weather History for Lamoni, IA

Change the Weather History Date:

Friday, November 2, 2012

  Actual Average Record
Temperature  
Mean Temperature 44 °F 46 °F  
Max Temperature 54 °F 56 °F 78 °F (1964)
Min Temperature 34 °F 37 °F 9 °F (1991)
Degree Days  
Heating Degree Days 21 19  
Month to date heating degree days 33 37  
Since 1 July heating degree days 568 521  
Cooling Degree Days 0 0  
Month to date cooling degree days 0 0  
Year to date cooling degree days 1311 946  
Moisture  
Dew Point 30 °F    
Average Humidity 62    
Maximum Humidity 82    
Minimum Humidity 41    
Precipitation  
Precipitation 0.00 in 0.12 in 2.62 in (2003)
Month to date precipitation 0.00 0.24  
Sea Level Pressure  
Sea Level Pressure 30.02 in    
Wind  
Wind Speed 8 mph (ENE)    
Max Wind Speed 14 mph    
Max Gust Speed 20 mph    
Visibility 10 miles    
Events      
T = Trace of Precipitation, MM = Missing Value Source: NWS Daily Summary

Daily Weather History Graph

Daily Weather History Graph

Search for Another Location

Airport:

Trip Planner

Search our weather history database for the weather conditions in past years. The results will help you decide how hot, cold, wet, or windy it might be!

Date:

Astronomy

Nov. 02, 2012 Rise Set
Actual Time 7:47 AM CDT 6:10 PM CDT
Civil Twilight 7:19 AM CDT 6:38 PM CDT
Nautical Twilight 6:46 AM CDT 7:11 PM CDT
Astronomical Twilight 6:14 AM CDT 7:42 PM CDT
Moon 8:57 PM CDT (11/2) 11:09 AM CDT (11/2)
Length of Visible Light 11h 19m
Length of Day
10h 22m
Waning Gibbous, 87% of the Moon is Illuminated
Nov 2
Waning Gibbous
Nov 6
Last Quarter
Nov 13
New
Nov 20
First Quarter
Nov 28
Full

Hourly Weather History & Observations

Time (CDT) Temp. Windchill Dew Point Humidity Pressure Visibility Wind Dir Wind Speed Gust Speed Precip Events Conditions
12:53 AM 39.0 °F 33.4 °F 30.9 °F 73% 30.01 in 10.0 mi NNE 8.1 mph - N/A   Clear
1:53 AM 37.9 °F 33.5 °F 30.0 °F 73% 30.01 in 10.0 mi NE 5.8 mph - N/A   Clear
2:53 AM 36.0 °F 32.1 °F 28.9 °F 76% 30.02 in 10.0 mi NE 4.6 mph - N/A   Clear
3:53 AM 35.1 °F 30.1 °F 28.9 °F 78% 30.02 in 10.0 mi NE 5.8 mph - N/A   Clear
4:53 AM 35.1 °F 30.1 °F 28.0 °F 76% 30.02 in 10.0 mi ENE 5.8 mph - N/A   Clear
5:53 AM 34.0 °F 27.2 °F 28.0 °F 79% 30.01 in 10.0 mi ENE 8.1 mph - N/A   Clear
6:53 AM 34.0 °F 29.8 °F 28.0 °F 79% 30.04 in 10.0 mi East 4.6 mph - N/A   Clear
7:53 AM 34.0 °F 29.8 °F 28.0 °F 79% 30.06 in 10.0 mi East 4.6 mph - N/A   Clear
8:53 AM 35.1 °F 29.3 °F 28.0 °F 76% 30.08 in 10.0 mi East 6.9 mph - N/A   Clear
9:53 AM 39.9 °F 33.9 °F 30.0 °F 68% 30.06 in 9.0 mi East 9.2 mph - 0.00 in   Unknown
10:53 AM 44.1 °F 39.0 °F 30.0 °F 58% 30.04 in 10.0 mi SE 9.2 mph 18.4 mph N/A   Clear
11:53 AM 46.9 °F - 30.9 °F 54% 30.04 in 10.0 mi ESE 10.4 mph - N/A   Clear
12:53 PM 51.1 °F - 30.9 °F 46% 30.03 in 10.0 mi East 10.4 mph - N/A   Clear
1:53 PM 52.0 °F - 30.0 °F 43% 30.00 in 10.0 mi East 9.2 mph - N/A   Clear
2:53 PM 52.0 °F - 28.9 °F 41% 29.99 in 10.0 mi SE 10.4 mph - N/A   Clear
3:53 PM 53.1 °F - 32.0 °F 45% 29.99 in 10.0 mi East 8.1 mph - N/A   Clear
4:53 PM 52.0 °F - 32.0 °F 47% 29.96 in 10.0 mi East 11.5 mph - N/A   Clear
5:53 PM 50.0 °F - 32.0 °F 50% 29.97 in 10.0 mi East 10.4 mph - N/A   Clear
6:53 PM 46.9 °F - 32.0 °F 56% 29.99 in 10.0 mi East 6.9 mph - N/A   Clear
7:53 PM 45.0 °F 41.2 °F 30.9 °F 58% 30.02 in 10.0 mi East 6.9 mph - N/A   Clear
8:53 PM 42.1 °F 38.4 °F 30.0 °F 62% 30.03 in 10.0 mi East 5.8 mph - N/A   Clear
9:53 PM 39.9 °F 35.1 °F 30.0 °F 68% 30.05 in 10.0 mi NNE 6.9 mph - N/A   Clear
10:53 PM 41.0 °F 36.4 °F 30.0 °F 65% 30.06 in 10.0 mi NNE 6.9 mph - N/A   Overcast
11:53 PM 39.0 °F 34.0 °F 30.0 °F 70% 30.05 in 10.0 mi NE 6.9 mph - N/A   Clear